Temp
10 10 10 10 10 10 11 11 11 11 11 11 12 12 13 13 14 14 14 15 15 16 17 17 18 18 19 20 21 20 20 20 22 21 23 24 25 25 26 26 26 25 25 24 24 23 24
10 10 10 10 10 11 11 11 11 11 11 12 12 12 13 13 14 14 15 15 16 17 17 17 18 19 19 22 20 20 20 21 22 23 23 24 25 24 25 26 26 25 24 24 24 23 23
10 10 10 10 10 11 11 12 12 12 12 12 12 13 13 14 14 15 15 16 17 17 17 18 18 19 19 21 20 21 21 21 21 22 23 23 23 24 24 24 24 24 24 25 24 24 24
10 10 10 10 10 11 11 12 12 12 12 12 13 13 14 14 15 15 16 17 17 17 17 17 18 19 21 19 20 20 21 21 21 21 22 22 22 23 24 24 24 25 25 25 25 24 24
10 10 10 10 10 11 12 12 12 13 13 13 13 14 14 15 15 16 17 17 17 17 17 18 19 19 21 19 20 20 20 22 21 21 21 22 22 24 23 25 25 25 25 25 24 24 25
9 10 10 10 10 12 12 12 13 13 13 13 14 14 15 15 16 16 16 17 17 17 18 18 18 20 20 21 20 20 20 20 22 22 22 23 24 25 26 26 24 25 25 25 25 24 24
9 10 10 10 11 12 12 13 13 14 14 14 14 15 15 15 16 16 17 17 17 18 18 21 21 21 21 20 20 21 20 21 22 23 24 24 25 24 23 23 24 24 24 24 25 23 22
9 10 10 10 11 12 13 13 14 14 14 14 15 15 15 16 16 17 17 18 18 19 20 19 19 20 19 20 21 21 21 22 23 24 24 24 23 23 23 23 23 23 23 24 23 22 22
9 10 10 10 11 12 13 13 14 14 14 15 15 15 16 16 16 17 17 17 19 19 21 20 20 20 20 21 21 20 21 22 24 24 24 23 22 21 22 23 22 23 22 21 21 23 23
9 10 10 10 11 12 13 14 14 15 15 15 15 15 16 16 17 16 17 18 18 18 22 21 21 20 20 20 21 19 19 21 23 23 24 22 21 21 22 22 21 22 21 20 21 21 23
10 10 10 11 11 12 13 14 14 15 15 15 15 16 16 16 16 18 17 18 18 18 19 21 21 19 20 21 21 20 19 21 23 22 22 21 21 21 21 20 20 21 20 20 21 21 23
10 10 10 10 11 12 13 14 14 15 15 15 15 16 16 16 16 17 18 18 18 20 18 20 21 22 21 21 21 21 21 20 21 22 23 21 20 21 20 20 20 20 20 21 21 22 20
10 10 10 10 11 12 13 14 14 15 15 15 15 16 16 16 17 17 18 18 20 19 21 20 21 22 22 21 20 21 21 21 22 21 20 21 21 21 19 21 21 22 21 20 19 20 20
10 10 10 10 11 11 12 14 14 15 15 15 15 15 16 16 17 17 18 20 18 20 21 22 21 21 21 21 20 20 21 21 20 21 22 21 19 20 20 19 19 20 20 18 17 18 20
10 10 10 11 11 11 12 13 14 14 15 15 15 15 15 16 16 17 18 18 19 21 21 21 21 21 20 20 21 20 19 19 18 19 20 20 19 19 19 20 20 20 19 19 17 14 16
10 10 10 11 11 11 12 13 14 14 15 15 15 15 15 16 17 17 19 17 19 20 21 22 21 20 20 20 20 20 19 18 18 18 19 19 19 19 19 19 19 19 19 18 18 15 16
10 10 11 11 11 12 12 13 14 14 14 15 15 17 15 16 16 18 19 19 19 18 19 21 20 20 20 19 20 19 19 18 18 18 18 19 19 18 19 19 19 19 19 18 18 17 16
10 10 11 11 12 12 12 13 14 14 14 15 15 19 15 16 18 19 19 19 18 19 18 19 20 20 20 19 19 19 18 18 16 17 18 17 17 17 19 18 18 18 18 18 15 16 16
10 10 11 11 12 12 12 13 14 14 14 15 18 16 15 16 17 16 18 18 18 19 19 19 18 19 19 19 17 18 17 15 15 17 17 17 17 17 18 17 18 17 18 17 16 14 14
10 10 11 11 12 12 13 13 14 14 15 15 17 16 16 16 17 19 19 18 17 17 17 18 18 18 19 18 18 17 17 15 14 15 13 14 17 16 16 17 18 17 17 17 16 14 14
10 10 11 11 12 12 13 13 14 14 15 15 17 17 16 17 18 19 19 19 18 17 18 18 18 19 18 17 18 17 17 16 15 13 14 16 15 16 16 17 17 16 16 17 16 16 14
10 10 11 11 12 12 13 13 14 14 15 15 17 17 16 16 18 19 15 19 19 18 18 18 18 19 19 16 18 17 17 17 17 15 16 15 14 12 13 16 16 15 16 17 17 16 16
9 10 10 11 11 12 13 13 14 14 15 15 15 15 17 13 17 18 18 18 19 17 16 18 18 18 16 17 16 15 15 15 15 16 15 14 13 12 12 12 12 11 14 16 16 16 15
9 10 10 11 11 12 12 13 13 14 15 15 15 15 14 14 16 18 18 18 18 18 17 17 17 15 13 13 13 13 13 14 14 13 14 11 12 9 9 8 10 16 17 16 15 15 16
9 10 10 10 11 11 12 13 13 14 14 15 15 15 14 10 17 16 17 17 16 16 16 15 13 13 13 14 13 10 10 6 9 12 13 13 11 8 9 11 13 14 14 13 13 13 15
8 9 9 10 11 11 12 12 13 13 14 14 15 15 14 12 13 16 16 16 16 15 14 11 10 11 12 12 11 8 12 14 14 12 10 11 10 10 8 8 10 13 15 13 13 12 12
7 8 9 9 10 11 11 11 12 13 13 14 14 15 14 12 13 15 15 16 16 15 15 13 11 11 12 8 9 10 13 14 14 10 6 7 7 9 9 8 11 14 13 12 10 11 11
7 8 8 9 9 10 10 11 12 12 12 13 13 14 14 12 11 12 12 13 13 15 13 13 12 11 11 7 8 10 8 12 12 14 11 9 8 7 8 8 8 13 12 9 11 10 9
6 7 7 8 8 9 10 10 11 11 12 12 12 13 14 13 11 12 12 13 13 14 14 11 14 12 13 12 9 9 8 6 9 11 15 12 13 12 12 12 14 12 12 10 9 8 6
Height
1509 1508 1508 1507 1505 1503 1501 1499 1496 1495 1494 1493 1493 1494 1495 1496 1497 1500 1503 1505 1508 1510 1512 1514 1514 1515 1517 1515 1514 1515 1514 1512 1511 1512 1511 1508 1506 1503 1501 1502 1505 1509 1515 1516 1519 1521 1518
1507 1507 1506 1505 1504 1501 1499 1496 1494 1493 1492 1491 1491 1492 1493 1494 1497 1500 1503 1506 1509 1512 1513 1514 1515 1516 1517 1513 1517 1516 1515 1515 1514 1512 1511 1509 1507 1507 1505 1505 1507 1513 1515 1517 1520 1520 1521
1505 1505 1505 1504 1502 1500 1497 1495 1492 1491 1490 1490 1490 1491 1492 1494 1497 1500 1504 1507 1510 1512 1514 1514 1516 1517 1517 1515 1517 1517 1516 1515 1514 1513 1512 1512 1511 1510 1511 1514 1516 1517 1516 1516 1518 1518 1519
1504 1504 1504 1503 1501 1499 1496 1494 1492 1491 1490 1489 1490 1491 1492 1495 1498 1502 1506 1509 1511 1513 1514 1515 1516 1517 1515 1517 1517 1517 1516 1516 1515 1515 1514 1513 1514 1513 1511 1516 1516 1513 1510 1512 1514 1517 1518
1503 1503 1503 1502 1500 1499 1496 1495 1493 1492 1491 1491 1491 1492 1494 1497 1500 1504 1507 1510 1512 1514 1515 1516 1518 1517 1514 1516 1516 1516 1516 1516 1516 1516 1515 1515 1516 1514 1516 1512 1512 1509 1506 1509 1516 1516 1515
1502 1502 1502 1501 1500 1498 1497 1496 1494 1493 1493 1493 1493 1495 1497 1500 1503 1506 1509 1512 1514 1515 1517 1518 1518 1520 1517 1515 1516 1516 1516 1517 1517 1517 1518 1516 1512 1508 1505 1504 1510 1504 1508 1507 1508 1514 1513
1501 1502 1501 1501 1500 1498 1498 1497 1496 1495 1495 1495 1496 1498 1500 1503 1505 1508 1510 1513 1518 1519 1518 1514 1514 1515 1515 1517 1516 1517 1517 1518 1518 1517 1511 1512 1507 1507 1512 1514 1512 1510 1511 1510 1507 1516 1518
1500 1501 1501 1500 1500 1498 1498 1498 1498 1498 1498 1499 1500 1501 1503 1505 1507 1509 1511 1512 1512 1515 1517 1517 1517 1517 1517 1517 1517 1518 1519 1518 1516 1509 1512 1512 1513 1519 1520 1519 1517 1515 1514 1511 1513 1518 1519
1499 1500 1500 1501 1500 1499 1498 1499 1499 1500 1501 1502 1502 1503 1504 1507 1509 1511 1513 1513 1513 1514 1514 1519 1519 1518 1519 1518 1518 1519 1518 1515 1511 1510 1509 1511 1519 1525 1522 1518 1518 1514 1517 1520 1523 1515 1514
1499 1499 1499 1500 1499 1498 1498 1499 1500 1502 1503 1504 1504 1505 1506 1509 1513 1512 1515 1514 1514 1514 1510 1519 1517 1519 1520 1519 1519 1519 1518 1518 1515 1512 1512 1518 1524 1523 1520 1521 1522 1520 1523 1525 1522 1520 1511
1498 1499 1499 1499 1499 1498 1498 1499 1501 1502 1504 1505 1506 1507 1508 1511 1511 1514 1515 1515 1516 1516 1522 1519 1517 1519 1518 1518 1519 1520 1520 1518 1515 1518 1520 1525 1523 1523 1522 1527 1526 1523 1526 1524 1520 1516 1509
1497 1498 1499 1499 1499 1498 1498 1499 1501 1502 1504 1506 1507 1508 1510 1512 1512 1513 1514 1516 1518 1517 1528 1517 1516 1516 1517 1518 1519 1520 1521 1521 1521 1518 1516 1523 1527 1527 1528 1528 1528 1527 1523 1520 1516 1510 1522
1496 1497 1499 1499 1499 1498 1497 1498 1500 1502 1504 1506 1508 1510 1511 1512 1514 1514 1515 1518 1518 1522 1515 1518 1515 1515 1516 1519 1522 1519 1520 1522 1517 1525 1524 1523 1527 1528 1531 1523 1524 1519 1516 1523 1528 1526 1523
1495 1496 1497 1498 1498 1497 1497 1497 1499 1501 1504 1506 1509 1510 1511 1512 1513 1515 1516 1516 1523 1511 1509 1511 1514 1516 1519 1520 1525 1524 1520 1523 1526 1520 1518 1521 1535 1529 1532 1531 1531 1526 1524 1535 1543 1534 1522
1495 1496 1496 1497 1498 1497 1496 1496 1498 1500 1503 1506 1509 1511 1512 1513 1514 1515 1517 1518 1513 1510 1510 1513 1515 1517 1522 1522 1521 1524 1527 1529 1533 1530 1525 1527 1530 1533 1535 1532 1532 1526 1532 1532 1539 1550 1545
1494 1495 1496 1497 1497 1497 1496 1496 1498 1500 1502 1506 1510 1512 1513 1513 1514 1516 1514 1517 1513 1514 1513 1512 1514 1516 1518 1520 1521 1521 1527 1535 1535 1536 1534 1533 1534 1533 1534 1534 1533 1531 1533 1535 1533 1556 1548
1492 1494 1494 1496 1497 1497 1497 1497 1498 1500 1503 1506 1510 1510 1511 1513 1515 1515 1513 1513 1516 1519 1517 1515 1515 1518 1516 1523 1520 1525 1530 1538 1537 1537 1535 1534 1534 1536 1535 1533 1532 1531 1533 1538 1536 1541 1548
1491 1493 1494 1496 1497 1497 1497 1497 1498 1501 1504 1507 1509 1505 1510 1513 1514 1512 1512 1513 1517 1519 1520 1520 1518 1517 1519 1523 1526 1528 1531 1533 1541 1540 1537 1542 1539 1543 1534 1539 1539 1537 1536 1538 1550 1549 1546
1489 1492 1493 1495 1496 1497 1497 1497 1499 1501 1504 1507 1505 1507 1511 1512 1514 1515 1516 1518 1517 1518 1519 1519 1522 1522 1523 1525 1533 1530 1535 1543 1543 1541 1542 1543 1541 1543 1534 1540 1539 1538 1538 1541 1547 1555 1554
1488 1491 1492 1494 1496 1497 1497 1497 1498 1501 1503 1505 1505 1508 1512 1513 1510 1508 1511 1514 1518 1522 1523 1522 1524 1524 1525 1528 1528 1533 1537 1543 1545 1545 1548 1548 1542 1545 1547 1540 1538 1541 1538 1537 1540 1551 1546
1486 1489 1492 1493 1495 1496 1497 1498 1498 1500 1502 1505 1504 1504 1506 1509 1510 1508 1510 1511 1514 1519 1522 1523 1525 1523 1526 1532 1531 1534 1535 1543 1546 1549 1548 1546 1549 1545 1543 1540 1539 1539 1538 1535 1534 1533 1539
1484 1487 1491 1492 1494 1496 1497 1498 1499 1500 1502 1504 1503 1506 1508 1508 1508 1509 1514 1511 1512 1518 1520 1522 1522 1523 1525 1533 1531 1534 1534 1538 1540 1547 1546 1549 1551 1555 1551 1541 1539 1539 1534 1530 1527 1529 1529
1482 1486 1490 1492 1494 1496 1497 1499 1499 1500 1502 1503 1503 1504 1506 1512 1509 1511 1511 1512 1513 1520 1525 1521 1523 1525 1531 1534 1536 1538 1541 1543 1544 1545 1548 1551 1553 1556 1555 1550 1550 1548 1535 1528 1528 1528 1530
1481 1485 1488 1492 1494 1495 1497 1499 1499 1500 1501 1502 1502 1506 1507 1511 1511 1509 1512 1514 1516 1519 1522 1526 1528 1532 1540 1541 1542 1544 1546 1547 1547 1550 1551 1557 1556 1564 1563 1563 1557 1530 1529 1528 1528 1530 1527
1479 1483 1487 1491 1494 1495 1497 1498 1500 1500 1501 1502 1503 1505 1506 1513 1509 1512 1513 1514 1521 1523 1526 1530 1535 1537 1539 1541 1543 1549 1551 1559 1556 1553 1553 1553 1558 1568 1567 1555 1543 1533 1534 1535 1535 1533 1528
1478 1482 1486 1489 1492 1495 1496 1498 1499 1500 1501 1503 1503 1504 1506 1508 1514 1511 1514 1518 1521 1526 1531 1536 1538 1539 1540 1543 1547 1556 1547 1540 1544 1552 1559 1558 1559 1559 1567 1566 1555 1534 1532 1538 1536 1533 1534
1477 1481 1485 1488 1491 1494 1496 1498 1499 1501 1502 1503 1504 1505 1507 1508 1513 1514 1516 1517 1520 1523 1526 1534 1537 1540 1541 1547 1551 1551 1541 1541 1541 1553 1564 1565 1566 1561 1560 1561 1546 1532 1536 1538 1542 1538 1537
1474 1479 1483 1486 1489 1492 1495 1497 1499 1501 1502 1503 1504 1505 1507 1508 1512 1514 1516 1519 1521 1522 1528 1532 1537 1539 1542 1549 1552 1547 1552 1542 1542 1536 1547 1553 1558 1563 1558 1559 1552 1535 1537 1542 1536 1536 1536
1473 1477 1481 1484 1488 1491 1493 1496 1498 1500 1501 1504 1506 1506 1507 1510 1513 1513 1515 1517 1519 1521 1524 1529 1529 1531 1534 1537 1545 1546 1548 1552 1546 1542 1533 1540 1538 1540 1541 1535 1529 1533 1534 1534 1533 1535 1537
Wind_Speed
7 7 9 11 12 14 15 16 14 13 11 10 10 9 10 11 12 12 14 17 18 16 11 9 11 11 7 6 5 2 5 8 6 2 6 6 4 2 2 6 5 10 9 9 8 5 2
6 6 7 10 12 13 13 12 11 10 9 8 8 9 9 10 12 14 18 19 18 14 10 9 12 12 7 5 0 1 4 4 3 3 3 4 1 2 5 9 1 8 9 9 7 6 4
5 6 6 9 11 10 10 9 8 7 6 6 7 9 11 13 16 19 20 20 16 12 10 10 12 12 7 5 1 2 4 2 4 3 1 1 2 7 9 6 5 9 8 9 8 9 5
6 5 5 7 9 8 6 5 4 3 3 5 8 10 13 17 21 22 22 19 15 11 9 10 14 12 1 3 2 2 3 2 2 2 3 4 5 2 4 7 8 11 9 11 9 9 5
6 4 4 6 8 5 3 1 1 4 6 9 11 14 18 22 23 23 21 17 13 10 9 12 10 5 3 2 3 3 2 3 2 2 3 5 4 5 6 12 10 9 11 3 9 4 2
6 4 3 5 6 3 1 2 3 6 9 11 14 17 19 21 22 22 18 15 10 9 10 7 4 6 3 2 3 2 3 4 5 7 6 6 8 10 11 11 9 7 4 9 2 7 6
7 4 2 4 4 1 2 4 6 8 11 13 15 16 17 20 21 19 17 12 8 5 6 5 11 3 8 3 4 4 5 5 8 10 10 6 11 4 10 7 8 5 4 5 5 5 6
7 5 2 2 3 0 4 6 8 10 13 14 15 16 17 19 19 18 16 5 2 10 12 8 8 7 3 4 8 7 4 9 10 10 5 9 5 5 2 2 3 4 5 1 1 2 6
8 5 2 1 2 2 6 8 10 12 13 12 12 14 15 15 15 14 6 3 18 9 8 7 4 5 3 5 4 4 2 4 6 5 5 9 9 2 4 1 7 3 7 6 10 8 10
9 6 3 2 1 2 6 9 11 14 13 12 12 14 16 15 12 10 5 9 11 4 4 6 5 3 2 3 5 6 3 2 2 3 6 5 4 0 2 2 8 8 4 8 10 8 6
10 6 4 3 1 2 6 10 12 15 14 13 11 11 13 12 8 8 8 10 7 5 3 4 5 2 3 2 5 5 5 3 4 7 5 5 3 0 1 5 6 6 8 8 8 9 9
11 7 5 3 2 2 5 11 13 15 15 14 11 9 9 6 8 9 9 8 4 4 3 6 4 7 9 8 6 5 5 6 3 4 7 8 3 4 6 4 4 7 8 6 6 4 5
11 8 5 4 2 1 4 10 14 16 16 15 13 10 8 10 7 10 8 6 4 4 3 7 8 5 8 8 8 6 5 5 0 5 5 7 4 4 6 9 6 8 7 4 3 4 1
13 9 6 4 2 0 3 10 13 16 18 16 14 11 9 8 10 10 8 6 6 3 6 4 9 10 5 7 4 4 5 8 9 6 3 4 7 5 6 5 6 5 7 3 4 3 5
14 10 7 5 4 2 3 10 12 15 18 18 15 12 7 9 10 10 10 6 3 7 8 11 12 9 7 5 3 5 9 7 7 9 4 3 4 5 5 5 6 3 4 3 1 1 3
15 12 9 6 5 3 3 10 12 14 17 18 11 10 7 10 10 8 6 2 2 2 2 13 7 4 6 7 6 4 2 3 3 8 5 3 2 1 3 4 4 7 3 3 1 3 4
15 12 9 7 6 5 5 9 13 14 18 19 11 11 8 10 10 9 5 3 5 6 2 3 3 4 6 5 3 3 3 5 2 4 5 6 3 5 3 2 8 2 1 3 4 3 4
15 13 10 8 7 5 6 7 13 15 17 16 8 5 10 14 9 6 5 6 4 8 4 3 2 4 6 4 3 3 5 5 3 4 3 6 2 2 4 4 3 3 4 4 2 3 3
17 13 10 8 7 6 6 7 14 16 18 9 6 6 10 14 4 3 5 6 3 7 3 4 3 1 4 5 4 6 5 4 4 4 6 6 1 3 5 6 4 4 1 2 1 2 10
17 14 11 9 7 7 6 7 12 16 15 8 6 3 6 8 5 9 9 9 7 3 4 4 7 7 8 6 4 7 7 4 2 4 4 3 1 3 5 8 6 8 9 9 10 7 11
19 16 12 9 7 7 6 6 9 13 13 8 2 2 4 6 6 9 9 10 10 5 3 7 4 4 7 4 6 5 7 7 3 2 1 3 2 4 9 11 11 12 13 14 15 15 14
19 15 12 10 8 6 6 5 7 9 11 5 5 4 3 3 8 10 5 10 12 5 8 7 7 8 6 6 2 6 5 3 2 4 1 2 1 3 4 7 11 15 17 18 16 11 13
19 16 13 10 8 7 6 5 6 6 8 3 4 8 7 3 9 8 7 9 9 10 2 4 11 8 9 9 10 10 8 5 4 2 3 1 0 2 4 10 13 6 3 3 7 8 8
20 17 14 11 9 8 7 6 6 6 6 4 7 6 5 4 7 8 8 9 12 6 8 10 8 8 6 10 11 10 10 6 2 2 1 4 1 2 3 5 3 6 11 14 10 9 10
22 19 16 13 11 9 8 6 6 6 6 6 10 5 4 3 7 7 11 15 11 13 15 12 6 8 11 3 2 2 1 3 1 4 3 2 3 2 2 5 14 12 4 6 9 13 11
22 21 18 15 12 10 8 7 7 7 7 8 8 6 3 13 5 12 13 16 11 7 7 5 7 7 4 3 2 2 3 1 5 6 5 4 2 3 3 3 4 3 2 4 7 11 5
22 21 19 16 14 12 10 8 8 8 8 8 7 7 4 6 6 10 8 11 7 11 5 8 7 4 3 2 1 3 3 2 4 3 4 3 2 5 6 5 8 8 2 4 5 3 12
19 21 19 17 15 13 11 10 9 9 9 8 8 7 6 5 7 5 6 9 7 10 5 11 6 2 3 2 3 3 1 4 3 2 5 7 6 4 4 4 6 3 6 3 7 20 10
19 19 19 17 15 13 12 11 10 10 10 8 3 6 6 6 6 10 10 12 10 8 6 14 1 7 9 3 3 2 2 0 0 3 5 4 7 4 8 5 12 9 16 12 8 7 4
Wind_Direction
249 269 284 295 304 304 297 293 288 282 273 263 252 236 220 205 196 186 178 171 166 158 156 158 158 174 176 223 86 5 36 28 62 154 205 203 212 176 101 121 146 124 124 112 129 149 189
244 265 286 302 308 306 299 295 290 282 269 254 235 217 201 187 178 169 167 162 156 154 153 152 152 167 202 211 68 308 335 19 87 195 193 234 293 315 110 120 189 126 133 138 156 149 150
233 259 290 307 313 311 303 299 295 277 261 233 209 192 179 168 164 159 155 154 151 150 146 147 162 170 231 95 216 260 297 358 22 6 182 255 176 186 147 143 139 157 160 162 188 175 162
221 254 293 315 321 312 309 307 289 258 209 181 172 167 158 155 151 151 152 150 152 147 141 154 160 168 287 203 236 276 263 257 325 8 99 105 157 139 274 117 179 199 222 197 146 181 183
212 243 290 321 329 315 318 297 173 141 141 142 143 144 146 147 150 152 151 151 147 136 136 147 151 206 143 250 229 284 247 213 205 150 130 145 173 187 187 201 195 211 228 172 154 210 248
206 228 280 328 329 327 309 155 129 132 131 132 137 142 147 151 153 154 153 149 138 125 131 140 183 230 188 171 238 228 212 176 178 162 171 213 211 200 210 222 252 143 204 201 198 127 241
199 216 257 329 334 345 175 149 140 137 135 134 135 141 147 151 153 153 148 133 133 133 191 346 150 76 114 100 137 153 186 192 187 210 218 219 248 19 36 355 350 18 294 290 78 79 289
198 204 221 315 336 182 168 156 148 146 140 138 138 143 150 152 154 157 160 232 73 118 115 102 108 96 96 149 135 137 180 211 204 214 199 219 80 69 44 350 305 276 290 81 116 147 295
197 199 192 257 337 182 176 164 160 157 152 146 138 145 149 154 159 167 176 173 138 146 126 109 107 92 84 108 60 67 268 213 224 215 232 21 86 136 282 38 321 97 333 15 318 312 263
194 194 190 218 307 179 186 177 169 166 162 154 139 138 147 153 155 165 169 168 166 163 168 140 166 94 179 160 79 41 28 355 227 128 102 77 98 212 276 61 337 300 35 308 284 271 267
190 189 189 200 217 180 196 189 181 174 172 166 151 140 143 150 150 169 195 182 193 284 186 162 102 73 137 14 126 67 31 230 169 157 246 105 145 349 325 10 333 22 322 291 280 262 278
188 186 188 187 203 176 198 196 190 183 180 176 167 151 147 156 158 178 156 159 175 248 158 154 155 145 98 92 70 95 95 91 52 128 70 106 102 23 8 303 282 297 258 241 253 248 241
190 184 187 176 193 186 194 192 192 190 187 183 181 174 168 162 173 169 152 149 206 260 144 155 148 174 107 106 81 99 111 75 199 181 176 166 87 112 356 294 195 308 283 259 209 194 260
193 183 182 170 175 88 179 179 186 191 190 187 186 187 188 189 176 173 165 212 224 61 183 104 150 156 128 127 105 148 145 98 49 311 178 220 166 6 7 17 336 3 328 6 301 342 320
196 182 178 173 164 115 154 167 180 184 185 184 183 184 184 187 180 173 210 209 134 189 153 158 164 166 142 138 161 123 71 67 35 16 9 295 102 119 49 19 326 25 42 357 185 119 249
198 184 173 173 160 125 135 163 170 172 174 175 170 171 193 185 176 173 231 280 152 56 154 173 170 275 159 141 161 169 127 50 81 26 332 54 186 64 86 274 78 355 37 263 38 309 297
199 188 172 170 164 136 127 162 165 162 163 168 167 187 198 180 164 202 202 150 143 141 189 268 153 163 132 143 151 127 100 108 31 72 22 359 311 110 252 20 360 148 160 337 312 327 296
197 193 177 171 167 146 122 151 165 159 156 150 180 196 175 163 185 207 194 153 131 145 147 114 82 116 156 147 138 104 137 52 71 356 30 34 2 276 24 72 338 333 353 321 301 299 247
193 197 182 174 174 156 125 135 169 167 163 166 195 113 165 175 163 188 159 130 130 166 145 160 132 159 176 143 126 126 119 91 60 14 24 15 76 284 186 161 177 278 46 312 336 287 253
192 197 187 180 180 165 139 125 164 178 177 170 174 123 151 206 289 190 178 169 138 97 109 101 119 143 137 145 118 155 128 131 91 58 47 316 325 299 309 323 320 291 273 270 255 255 270
194 194 193 184 183 178 159 133 143 177 184 175 210 146 152 180 215 197 183 178 161 149 132 167 160 185 155 148 138 148 138 138 146 123 136 324 268 330 299 303 305 296 286 276 267 266 263
197 196 194 191 184 184 178 159 140 151 175 185 184 160 154 137 164 171 153 196 179 133 162 166 185 153 162 153 211 172 160 200 163 168 169 45 131 333 273 296 311 306 289 279 265 276 288
195 198 198 198 189 188 189 177 162 154 161 162 174 156 162 169 177 175 191 170 172 144 43 195 148 143 96 76 78 66 67 72 90 177 162 321 200 348 279 337 323 284 258 334 303 300 264
193 197 198 204 200 192 194 188 174 172 181 169 179 148 127 157 186 191 183 169 156 171 140 123 139 113 112 117 96 73 71 66 137 84 310 143 126 60 297 311 309 42 310 299 280 292 291
194 196 200 201 204 200 196 190 183 173 172 176 168 139 137 120 172 165 164 142 130 128 138 119 80 112 139 120 107 61 109 60 87 46 101 218 144 139 261 287 292 299 55 7 334 306 312
194 195 199 201 201 204 200 192 184 171 165 159 165 157 130 124 215 164 152 162 148 137 137 109 108 131 133 94 106 168 207 219 150 141 47 82 102 241 168 258 269 54 50 357 315 278 51
191 193 194 197 200 200 202 196 183 178 169 165 160 155 121 108 145 162 158 179 173 180 138 146 153 145 175 98 136 190 210 329 202 193 182 120 202 223 218 248 267 291 28 307 286 348 325
191 193 194 195 197 198 198 199 189 184 178 172 164 163 137 111 143 146 141 156 168 185 160 138 142 156 138 130 170 207 207 203 216 240 173 182 178 202 212 252 277 174 203 234 315 306 336
193 193 194 195 196 197 199 199 197 188 185 183 170 171 160 152 154 174 170 171 169 176 173 172 204 153 178 143 176 160 184 147 290 236 172 247 211 238 192 237 295 282 286 298 306 324 328